Location: Lake Sonoma
(38.7200°N, 123.0564°W)
Time: 18:00:28
(UTC-07:00)

Daily predictions for brighter satellites

Satellite Brightness Start Highest point End
(mag) Time Altitude Azimuth Time Altitude Azimuth Time Altitude Azimuth
Sich 1 3.5 20:15:18 10° N 20:19:19 38° ENE 20:23:17 10° SSE
Cosmos 2074 Rocket 4.2 20:13:17 10° S 20:19:35 86° W 20:25:55 10° N
Cosmos 2333 Rocket 2.6 20:15:14 10° S 20:20:30 42° ESE 20:25:46 10° NE
Cosmos 1844 Rocket 2.8 20:19:19 10° NNW 20:24:58 64° ENE 20:30:34 10° SSE
Cosmos 1892 3.5 20:21:30 10° NNE 20:25:05 34° ENE 20:28:37 10° SE
COSMOS 2428 2.7 20:19:51 10° SSW 20:25:35 81° ESE 20:31:19 10° NNE
Cosmos 1610 Rocket 4.5 20:20:35 10° S 20:26:40 72° E 20:32:48 10° N
Cosmos 2333 4.2 20:21:27 10° SSW 20:27:07 87° ESE 20:32:45 10° NNE
YAOGAN 6 3.5 20:24:14 10° SE 20:27:24 30° ENE 20:30:37 10° N
Cosmos 1809 Rocket 4.5 20:24:25 10° S 20:30:31 69° E 20:36:40 10° NNE
Envisat 3.0 20:25:56 10° SSE 20:30:58 73° ENE 20:36:04 10° N
Cosmos 2251 Rocket 3.6 20:26:35 10° NNW 20:31:57 68° ENE 20:37:16 10° SSE
Cosmos 1844 3.9 20:26:26 10° NNW 20:32:03 57° ENE 20:37:41 10° SE
Cosmos 2219 Rocket 2.2 20:29:03 10° S 20:34:39 66° ESE 20:40:15 10° NNE
Cosmos 2237 Rocket 2.8 20:32:03 10° SSE 20:36:57 32° ESE 20:41:52 10° NE
Meteor 2-2 Rocket 4.3 20:31:21 10° S 20:37:07 66° E 20:43:01 10° NNE
Cosmos 1633 Rocket 3.2 20:37:14 10° N 20:41:30 52° E 20:45:44 10° SSE
Meteor 2-14 Rocket 4.4 20:40:46 10° S 20:46:47 69° E 20:52:52 10° NNE
Cosmos 2278 Rocket 3.1 20:42:33 10° N 20:47:38 33° ENE 20:51:43 15° ESE
Cosmos 1340 3.2 20:44:18 10° SSW 20:48:03 61° W 20:51:49 10° N
Cosmos 1515 Rocket 4.2 20:47:20 10° SSE 20:51:24 36° E 20:55:31 10° NNE
Nadezhda 3 Rocket 4.0 20:45:24 10° N 20:51:44 80° E 20:58:06 10° S
Meteor 2-15 Rocket 4.4 20:48:22 10° N 20:54:33 83° E 21:00:40 10° S
Cosmos 2228 Rocket 3.4 20:52:43 10° SSE 20:56:49 41° E 21:00:58 10° NNE
Meteor 2-16 Rocket 4.4 20:50:51 10° S 20:56:55 68° E 21:03:00 10° NNE
ASTRO E2 4.4 20:57:56 10° SSW 21:00:24 16° SSE 21:00:59 15° SSE
Cosmos 1825 3.2 21:00:09 10° NNE 21:03:26 27° ENE 21:04:39 23° ESE
Thor Agena Rocket 3.8 20:58:23 10° N 21:03:38 75° WNW 21:08:53 10° SSW
SL-24 R/B - RUBIN 2 4.3 21:01:27 10° NW 21:05:39 50° WSW 21:09:50 10° SSE
Sakura Rocket 4.4 21:03:39 10° SW 21:07:13 21° S 21:08:35 18° SSE
OAO 2 Rocket 4.1 21:04:52 10° W 21:09:44 40° SSW 21:12:37 21° SE
Cosmos 1328 Rocket 3.5 21:05:36 10° S 21:10:01 89° WNW 21:14:28 10° N
ATLAS CENTAUR R/B 1.6 21:07:22 10° SW 21:10:56 60° WNW 21:14:43 10° NNE
Spot 2 Rocket 3.5 21:09:25 14° SSE 21:13:49 71° ENE 21:18:54 10° N
SL-8 R/B 3.7 21:10:22 10° WSW 21:15:09 86° NNW 21:19:59 10° ENE
BREEZE-M DEB (TANK) 3.9 21:14:02 10° NW 21:16:45 21° N 21:17:44 16° NE
Resurs 01 Rocket 1.9 21:17:10 10° S 21:21:30 70° WSW 21:25:57 10° NNW
ATLAS 2AS CENTAUR R/B 2.9 21:14:08 10° NNW 21:22:04 86° ENE 21:27:11 22° SSE
Cosmos 1470 Rocket 3.5 21:20:21 10° N 21:24:47 83° E 21:27:41 21° S
GEOS 3 Rocket 4.5 21:20:25 10° ENE 21:24:42 27° ESE 21:24:42 27° ESE
SL-16 R/B 2.8 21:24:48 24° SE 21:27:10 34° ESE 21:32:12 10° NE
Cosmos 1939 Rocket 3.9 21:25:08 10° S 21:28:49 43° W 21:32:34 10° NNW
ARGOS 3.6 21:29:47 30° ESE 21:31:47 42° ENE 21:36:48 10° N
Cosmos 1869 3.3 21:30:47 32° SSE 21:32:26 61° E 21:36:25 10° NNE
Cosmos 1959 Rocket 4.4 21:31:18 10° S 21:37:28 76° E 21:43:35 10° N
Meteor 2-3 Rocket 4.4 21:33:34 10° NNW 21:39:01 54° W 21:44:31 10° S
ATLAS 2A CENTAUR R/B 4.3 21:23:37 10° SW 21:40:37 36° S 21:44:53 28° SE
Cosmos 1727 Rocket 4.2 21:34:41 10° N 21:40:41 51° E 21:42:59 34° SE
Cosmos 1408 2.8 21:42:21 10° NNW 21:46:00 67° W 21:47:03 42° SSW
Meteor 2-10 Rocket 3.7 21:42:56 23° S 21:46:34 67° E 21:52:20 10° NNE
ERS-1 Rocket 3.4 21:50:08 40° E 21:50:50 43° ENE 21:55:34 10° N
NOSS 3-4 (A) 4.2 21:45:35 10° NNW 21:52:25 50° NE 21:55:21 34° ESE
NOSS 3-4 (C) 4.3 21:45:41 10° NNW 21:52:31 49° NE 21:55:26 34° ESE
USA 81 4.2 21:47:44 10° N 21:52:53 52° E 21:53:44 47° ESE
Cosmos 1933 Rocket 4.1 21:49:02 10° NNW 21:53:20 55° W 21:55:26 28° SSW
Cosmos 407 Rocket 3.7 21:49:01 10° N 21:54:00 50° ENE 21:54:44 46° E
Cosmos 1151 Rocket 4.2 21:50:52 10° SSW 21:54:52 40° W 21:58:56 10° N
Cosmos 2218 Rocket 4.1 21:48:49 10° S 21:55:10 78° W 22:01:36 10° N
H-2A R/B 2.1 21:57:48 51° ESE 21:58:32 57° ENE 22:03:24 10° N
SL-08 R/B 4.5 21:53:28 16° S 21:58:38 89° E 22:05:05 10° N
Cosmos 2344 3.7 21:52:15 10° S 21:59:29 46° ESE 22:07:00 10° NE
Cosmos 2297 4.0 21:54:49 10° NNW 22:00:19 50° ENE 22:01:18 45° E
Cosmos 1371 Rocket 4.3 21:56:56 10° SSW 22:02:13 67° WNW 22:07:34 10° NNE
BREEZE-M DEB (TANK) 3.6 21:59:34 10° WNW 22:01:37 32° WNW 22:01:37 32° WNW
USA 267 3.4 21:57:15 10° ENE 22:03:31 47° SE 22:09:44 10° SSW
Cosmos 2333 Rocket 4.3 22:00:07 10° WSW 22:04:52 27° WNW 22:09:39 10° N
Cosmos 2369 Rocket 4.3 22:03:46 10° NNE 22:06:12 13° NE 22:07:06 12° ENE
Cosmos 2366 rocket 4.2 22:00:18 10° SSW 22:06:28 70° W 22:12:46 10° N
Cosmos 676 Rocket 4.4 22:09:14 10° N 22:14:13 47° ENE 22:14:13 47° ENE
MetOp-A 4.2 22:14:04 52° S 22:15:24 77° WSW 22:20:46 10° NNW
Cosmos 1869 Rocket 3.7 22:11:28 10° N 22:15:15 63° NNE 22:15:15 63° NNE
Cosmos 2237 Rocket 3.8 22:15:52 10° WSW 22:20:54 34° WNW 22:25:59 10° N
Helios 1A 3.7 22:21:58 45° NNE 22:21:58 45° NNE 22:25:05 10° N
Cosmos 1862 4.0 22:18:07 10° N 22:21:11 50° N 22:21:11 50° N
Cosmos 2056 Rocket 4.2 22:18:25 10° SSW 22:23:43 55° WNW 22:29:02 10° N
Cosmos 405 Rocket 4.0 22:25:20 37° N 22:25:20 37° N 22:27:49 10° N
Cosmos 1452 Rocket 4.2 22:26:08 41° NE 22:26:08 41° NE 22:29:44 10° NNE
Terra 3.4 22:27:10 24° NE 22:27:10 24° NE 22:29:55 10° N
CZ-4C R/B 4.0 22:29:46 17° NE 22:29:46 17° NE 22:31:13 10° NE
Cosmos 2278 Rocket 3.5 22:26:37 10° NW 22:31:39 33° WSW 22:33:36 26° SW
ATLAS 5 CENTAUR R/B 4.2 22:30:16 10° N 22:34:20 19° NE 22:35:41 18° NE
SPOT 5 3.5 22:47:02 50° NNW 22:47:02 50° NNW 22:50:20 10° NNW
Centaur D-1A AC-31 3.8 22:42:12 10° WSW 22:46:00 19° SW 22:46:00 19° SW
Cosmos 1140 Rocket 3.8 22:42:53 10° NNW 22:47:10 61° N 22:47:10 61° N
Lacrosse 5 3.8 22:44:42 10° NNW 22:48:19 19° NNE 22:48:55 19° NE
Cosmos 1954 Rocket 4.5 22:53:07 10° NNW 22:57:18 57° NW 22:57:18 57° NW
Cosmos 1934 Rocket 4.1 23:02:01 61° NNE 23:02:01 61° NNE 23:07:02 10° N
GEOS 3 Rocket 4.4 22:57:53 10° NNE 23:03:03 49° NW 23:05:41 26° WSW
SL-16 R/B 3.7 23:06:24 11° WSW 23:11:14 32° WNW 23:16:17 10° N
BREEZE-M DEB (TANK) 4.2 22:52:58 10° WNW 23:18:20 77° NNE 23:19:22 67° E
Cosmos 1943 Rocket 3.7 23:14:13 10° N 23:17:39 27° NNE 23:17:39 27° NNE
H-2A R/B 4.3 23:38:25 15° W 23:38:25 15° W 23:41:06 10° WNW
USA 267 3.9 23:40:14 10° NE 23:46:30 50° NW 23:52:44 10° WSW
Cosmos 2369 Rocket 3.4 23:45:26 10° NNW 23:48:53 38° NNW 23:48:53 38° NNW
